TimeMDT,TemperatureF,Dew PointF,Humidity,Sea Level PressureIn,VisibilityMPH,Wind Direction,Wind SpeedMPH,Gust SpeedMPH,PrecipitationIn,Events,Conditions,WindDirDegrees,DateUTC
12:53 AM,46.9,21.9,37,30.09,10.0,Calm,Calm,-,N/A,,Scattered Clouds,0,2012-10-06 06:53:00
1:53 AM,43.0,25.0,49,30.10,10.0,SW,3.5,-,N/A,,Partly Cloudy,220,2012-10-06 07:53:00
2:53 AM,41.0,27.0,57,30.13,10.0,SSW,3.5,-,N/A,,Clear,210,2012-10-06 08:53:00
3:53 AM,42.1,28.9,60,30.12,10.0,SW,3.5,-,N/A,,Clear,220,2012-10-06 09:53:00
4:53 AM,42.1,28.0,58,30.13,10.0,Calm,Calm,-,N/A,,Clear,0,2012-10-06 10:53:00
5:53 AM,39.0,28.0,65,30.14,10.0,ESE,3.5,-,N/A,,Clear,120,2012-10-06 11:53:00
6:53 AM,41.0,28.9,62,30.16,10.0,South,3.5,-,N/A,,Clear,190,2012-10-06 12:53:00
7:53 AM,39.0,28.0,65,30.17,10.0,South,4.6,-,N/A,,Partly Cloudy,170,2012-10-06 13:53:00
8:53 AM,44.1,28.0,53,30.19,10.0,Calm,Calm,-,N/A,,Clear,0,2012-10-06 14:53:00
9:53 AM,50.0,27.0,41,30.19,10.0,Calm,Calm,-,N/A,,Clear,0,2012-10-06 15:53:00
10:53 AM,53.1,27.0,37,30.17,10.0,Calm,Calm,-,N/A,,Clear,0,2012-10-06 16:53:00
11:53 AM,55.0,24.1,30,30.15,10.0,WNW,5.8,-,N/A,,Clear,300,2012-10-06 17:53:00
12:53 PM,57.0,23.0,27,30.13,10.0,NW,9.2,-,N/A,,Clear,310,2012-10-06 18:53:00
1:53 PM,60.1,19.0,20,30.12,10.0,WNW,4.6,-,N/A,,Clear,300,2012-10-06 19:53:00
2:53 PM,61.0,16.0,17,30.09,10.0,North,-9999.0,-,N/A,,Clear,0,2012-10-06 20:53:00
3:53 PM,62.1,14.0,15,30.07,10.0,NNW,9.2,-,N/A,,Clear,330,2012-10-06 21:53:00
4:53 PM,61.0,16.0,17,30.06,10.0,NW,10.4,-,N/A,,Clear,320,2012-10-06 22:53:00
5:53 PM,60.1,16.0,18,30.06,10.0,NW,12.7,-,N/A,,Clear,320,2012-10-06 23:53:00
6:53 PM,55.9,17.1,22,30.07,10.0,NW,9.2,-,N/A,,Partly Cloudy,320,2012-10-07 00:53:00
7:53 PM,54.0,23.0,30,30.09,10.0,NW,6.9,-,N/A,,Clear,310,2012-10-07 01:53:00
8:53 PM,51.1,27.0,39,30.09,10.0,North,4.6,-,N/A,,Clear,350,2012-10-07 02:53:00
9:53 PM,48.9,25.0,39,30.09,10.0,SSE,4.6,-,N/A,,Clear,150,2012-10-07 03:53:00
10:53 PM,46.0,21.0,37,30.09,10.0,South,3.5,-,N/A,,Clear,170,2012-10-07 04:53:00
11:53 PM,45.0,17.1,33,30.09,10.0,SSE,3.5,-,N/A,,Clear,160,2012-10-07 05:53:00